[[[{"header":{"parameterUnit":"kt","parameterCategory":2,"dx":1,"dy":1,"la1":30.253999710083008,"la2":30.299108505249023,"lo1":-89.0895004272461,"lo2":-89.04439544677734,"nx":28,"ny":28,"refTime":"2022-10-19T09:00:00:Z","depth":0,"parameterNumber":1,"parameterNumberName":"U-component_of_WINDS"},"data":[6.0868,6.1078,6.1081,6.1321,6.1365,6.1527,6.1587,6.1663,6.1725,6.1918,6.203,6.2055,6.2116,6.2249,6.2368,6.2376,6.2423,6.2494,6.249,6.2175,6.2131,6.2089,6.2038,6.2506,6.2507,6.2812,6.2815,6.2817,6.063,6.0675,6.0805,6.0932,6.1042,6.0976,6.1071,6.1166,6.1314,6.1393,6.1504,6.1675,6.181,6.1849,6.1978,6.2073,6.2047,6.2107,6.2097,6.2106,6.1772,6.1717,6.2126,6.2125,6.2125,6.2125,6.2125,6.2125,6.0196,6.0323,6.0401,6.0542,6.0607,6.0693,6.0813,6.084,6.0966,6.1104,6.1085,6.1252,6.133,6.1489,6.1544,6.1672,6.1606,6.1671,6.1687,6.1702,6.1716,6.1263,6.1695,6.1694,6.1693,6.1692,6.1692,0,5.9877,5.9871,5.9997,6.0123,6.0226,6.0324,6.0415,6.049,6.0478,6.0584,6.0735,6.0822,6.0995,6.1135,6.1259,6.1302,6.124,6.1237,6.1281,6.1288,6.1278,6.1279,6.0726,6.1223,6.1219,6.1216,6.1214,6.1213,5.9433,5.9584,5.9669,5.9757,5.9807,5.995,6.0035,6.0014,6.0105,6.0213,6.0326,6.0469,6.0581,6.0823,6.0852,6.0981,6.0951,6.1139,6.0969,6.0971,6.0945,6.0934,6.0946,6.117,6.1176,6.118,6.1183,0,5.9181,5.9187,5.9421,5.9492,5.9514,5.9672,5.9731,5.9858,5.9871,6.0046,6.0086,6.0106,6.0255,6.0254,6.0426,6.042,6.0672,6.0644,6.0643,6.0635,6.0798,6.078,6.1342,6.1412,6.0933,6.0938,6.0942,0,5.8801,5.9001,5.8997,5.9133,5.9352,5.9326,5.9543,5.9575,5.9644,5.9782,5.9715,5.9845,5.9824,5.9954,5.9947,6.0154,6.0189,6.0194,6.0188,6.0197,6.0195,6.0239,6.0214,6.0179,6.0176,6.0173,6.0171,0,5.8402,5.8637,5.8858,5.8912,5.9008,5.9112,5.9157,5.9234,5.9318,5.9428,5.9481,5.9612,5.9682,5.9783,5.977,5.9655,6.0027,5.9865,6.0031,6.0032,6.011,6.0104,6.0607,6.0167,6.0167,6.0166,6.0165,0,5.8094,5.8207,5.8531,5.8606,5.8668,5.8816,5.8941,5.9068,5.9154,5.9159,5.9245,5.9198,5.9385,5.9223,5.9477,5.9328,5.9401,5.9425,5.9437,5.9448,5.9265,5.9541,6.0026,6.0073,5.9464,5.9458,5.9453,0,5.7631,5.796,5.7939,5.8248,5.8398,5.8308,5.8472,5.8552,5.8571,5.87,5.8721,5.887,5.875,5.8796,5.8923,5.8949,5.9143,5.8924,5.9103,5.911,5.9076,5.9524,5.9592,5.9921,5.9379,5.9386,5.9392,0,5.7272,5.7388,5.7445,5.7503,5.7607,5.7735,5.7924,5.8066,5.8152,5.8253,5.8406,5.862,5.8534,5.8613,5.8589,5.8721,5.9011,5.8613,5.8614,5.8679,5.9344,5.9407,5.9462,5.8965,5.8974,5.8982,5.9333,0,5.6793,5.696,5.7116,5.7253,5.7352,5.7548,5.7547,5.765,5.7616,5.7631,5.7862,5.7931,5.8075,5.8141,5.8111,5.8416,5.8363,5.8273,5.8111,5.8407,5.8522,5.857,5.7939,5.7934,5.793,5.7927,0,0,5.6344,5.6584,5.6557,5.674,5.6821,5.6725,5.6933,5.7001,5.7143,5.7199,5.711,5.7419,5.7479,5.7759,5.7851,5.7913,5.7965,5.7863,5.8268,5.8306,5.8341,5.8464,5.8514,5.792,5.7918,5.7917,5.7916,0,5.6167,5.6234,5.6442,5.6511,5.6612,5.6619,5.667,5.6753,5.6773,5.7002,5.6918,5.7057,5.7309,5.7379,5.7448,5.7831,5.7757,5.7876,5.8079,5.8228,5.8271,5.831,5.844,5.8487,5.7906,5.7907,5.7907,0,5.5809,5.5871,5.5972,5.6156,5.6222,5.6382,5.6212,5.6391,5.6508,5.6394,5.6622,5.666,5.6758,5.7026,5.7146,5.7068,5.7567,5.7413,5.7438,5.745,5.7594,5.7646,5.7693,5.7079,5.7076,5.7073,0,0,5.5656,5.5813,5.5872,5.6118,5.6165,5.618,5.6266,5.624,5.6331,5.6367,5.6414,5.6504,5.6648,5.6744,5.688,5.7176,5.7191,5.7311,5.735,5.7382,5.7411,5.7563,5.7615,5.7063,5.7062,5.7062,0,0,5.5582,5.5661,5.561,5.5896,5.5985,5.6059,5.6208,5.6148,5.627,5.6247,5.6213,5.6236,5.6486,5.6528,5.6382,5.6821,5.6662,5.6697,5.6784,5.6834,5.6872,5.6854,5.6216,0,0,0,0,0,5.54,5.565,5.5604,5.5652,5.5885,5.6085,5.6114,5.6091,5.5977,5.6095,5.6124,5.6043,5.6441,5.631,5.6358,5.652,5.6922,5.6947,5.697,5.7152,5.7204,5.7247,0,0,0,0,0,0,5.5419,5.5477,5.5597,5.5683,5.5735,5.6076,5.5877,5.5877,5.5964,5.5945,5.604,5.6046,5.603,5.6284,5.6328,5.6482,5.6201,5.6931,5.6953,5.6972,5.717,5.7212,5.7248,0,0,0,0,0,5.5433,5.548,5.5861,5.5679,5.5724,5.5753,5.5867,5.5866,5.5932,5.5979,5.5982,5.5907,5.6035,5.6069,5.631,5.6463,5.6171,5.6187,5.6945,5.6962,5.6977,5.719,0,0,0,0,0,0,5.5444,5.5481,5.5869,5.5882,5.5583,5.5733,5.5756,5.5857,5.596,5.5966,5.5843,5.5827,5.6042,5.6067,5.6094,5.6457,5.6146,5.6163,5.6173,5.6958,5.6971,5.6983,0,0,0,0,0,0,5.5455,5.5492,5.5876,5.5756,5.5755,5.5716,5.5736,5.5938,5.5963,5.5819,5.5808,5.5835,5.6,5.6067,5.6088,5.6404,5.6128,5.6143,5.6154,5.6161,5.6969,5.6979,0,0,0,0,0,0,5.547,5.5502,5.5752,5.5752,5.575,5.5892,5.5893,5.6133,5.5861,5.5816,5.5835,5.5824,5.6003,5.6023,5.6084,5.6392,5.6401,5.6128,5.6139,5.6146,5.6151,0,0,0,0,0,0,0,5.5483,5.5274,5.5793,5.5748,5.5746,5.6001,5.6004,5.6008,5.5858,5.5848,5.5838,5.5829,5.6038,5.6055,5.6072,5.6382,0,0,5.6127,5.6134,0,0,0,0,0,0,0,0,5.526,5.5271,5.5794,5.5796,5.5799,5.6001,5.6004,5.6007,5.5856,5.5848,5.584,5.5833,5.6042,5.6056,5.607,0,0,0,0,0,0,0,0,0,0,0,0,0,0,0,5.5794,5.5796,0,5.6002,5.6004,5.6007,5.5855,5.5849,5.5842,5.5836,5.6046,5.6058,5.6069,0,0,0,0,0,0,0,0,0,0,0,0,0,0,0,0,0,0,0,0,0,0,0,0,0,0,0,0,0,0,0,0,0,0,0,0,0,0,0,0,0,0,0,0,0,0,0,0,0,0,0,0,0,0,0,0,0,0,0,0,0,0,0,0,0,0,0,0,0]}],[{"header":{"parameterUnit":"kt","parameterCategory":2,"dx":1,"dy":1,"la1":30.253999710083008,"la2":30.299108505249023,"lo1":-89.0895004272461,"lo2":-89.04439544677734,"nx":28,"ny":28,"refTime":"2022-10-19T09:00:00:Z","depth":0,"parameterNumber":2,"parameterNumberName":"V-component_of_WINDS"},"data":[-1.5225,-1.5298,-1.5343,-1.5448,-1.5506,-1.5586,-1.5629,-1.569,-1.5751,-1.5853,-1.592,-1.5975,-1.6055,-1.6147,-1.6224,-1.6247,-1.6276,-1.6269,-1.6297,-1.6287,-1.6288,-1.629,-1.6275,-1.6274,-1.6274,-1.6302,-1.6302,-1.6302,-1.5216,-1.5274,-1.5342,-1.5439,-1.5498,-1.5533,-1.5613,-1.5661,-1.5732,-1.5807,-1.5875,-1.5969,-1.605,-1.6134,-1.622,-1.6257,-1.6279,-1.6277,-1.6276,-1.6288,-1.6278,-1.6262,-1.6258,-1.6258,-1.6258,-1.6258,-1.6258,-1.6258,-1.521,-1.5252,-1.5336,-1.5411,-1.5472,-1.5537,-1.5585,-1.5651,-1.5719,-1.5812,-1.5854,-1.5936,-1.6021,-1.6147,-1.6201,-1.6268,-1.6278,-1.6291,-1.6295,-1.6297,-1.6293,-1.6248,-1.6285,-1.6285,-1.6285,-1.6285,-1.6285,0,-1.5221,-1.5256,-1.5324,-1.5405,-1.5462,-1.5531,-1.5601,-1.5632,-1.5723,-1.5776,-1.5856,-1.5911,-1.6019,-1.6101,-1.6192,-1.6246,-1.6289,-1.6298,-1.6307,-1.6288,-1.6259,-1.6276,-1.6258,-1.6296,-1.6297,-1.6297,-1.6297,-1.6297,-1.5219,-1.5261,-1.5372,-1.5414,-1.5463,-1.553,-1.5579,-1.5656,-1.5705,-1.5804,-1.5838,-1.592,-1.599,-1.6113,-1.619,-1.6272,-1.6293,-1.6303,-1.6306,-1.6286,-1.6295,-1.6291,-1.6297,-1.63,-1.63,-1.63,-1.6299,0,-1.5214,-1.5288,-1.5368,-1.5474,-1.5502,-1.5543,-1.5634,-1.568,-1.5738,-1.5809,-1.583,-1.5922,-1.6,-1.6077,-1.6182,-1.6219,-1.6292,-1.6311,-1.6264,-1.6271,-1.6288,-1.6286,-1.6328,-1.6339,-1.6339,-1.6339,-1.6339,0,-1.5242,-1.5295,-1.5402,-1.5445,-1.5507,-1.5582,-1.5642,-1.5698,-1.5771,-1.5828,-1.5887,-1.5939,-1.6028,-1.6092,-1.6147,-1.622,-1.624,-1.6273,-1.6287,-1.6268,-1.6264,-1.6296,-1.6296,-1.6317,-1.6317,-1.6316,-1.6316,0,-1.5227,-1.5345,-1.5415,-1.5454,-1.5572,-1.5604,-1.5654,-1.5737,-1.5784,-1.5858,-1.5891,-1.5972,-1.6016,-1.6079,-1.6149,-1.6148,-1.624,-1.6253,-1.6274,-1.6272,-1.629,-1.6288,-1.6307,-1.6316,-1.6316,-1.6316,-1.6315,0,-1.526,-1.5332,-1.5422,-1.5521,-1.555,-1.5596,-1.568,-1.5737,-1.582,-1.5857,-1.5916,-1.5965,-1.6033,-1.6042,-1.6138,-1.6118,-1.6159,-1.6197,-1.62,-1.6211,-1.6217,-1.6218,-1.6228,-1.6232,-1.6221,-1.622,-1.622,0,-1.5223,-1.5333,-1.5398,-1.5482,-1.5543,-1.5605,-1.5658,-1.5729,-1.5783,-1.5844,-1.5905,-1.5974,-1.5996,-1.6029,-1.6066,-1.6132,-1.6159,-1.6131,-1.622,-1.6223,-1.6196,-1.6207,-1.6189,-1.6217,-1.6211,-1.6212,-1.6212,0,-1.5203,-1.5344,-1.5354,-1.5402,-1.5506,-1.5558,-1.5618,-1.5703,-1.574,-1.5812,-1.5866,-1.5965,-1.5986,-1.6038,-1.6086,-1.6121,-1.6143,-1.6139,-1.6142,-1.6138,-1.6212,-1.6195,-1.62,-1.6168,-1.6169,-1.617,-1.6205,0,-1.5239,-1.5303,-1.5333,-1.5435,-1.5486,-1.5542,-1.5621,-1.5665,-1.5706,-1.5761,-1.5841,-1.5919,-1.6005,-1.603,-1.607,-1.6126,-1.6128,-1.615,-1.6163,-1.6168,-1.6182,-1.6187,-1.6136,-1.6137,-1.6138,-1.6139,0,0,-1.5185,-1.5278,-1.5346,-1.5407,-1.5454,-1.5517,-1.557,-1.5624,-1.5731,-1.5763,-1.5771,-1.592,-1.5983,-1.6072,-1.608,-1.6114,-1.6132,-1.6126,-1.6165,-1.6168,-1.617,-1.6183,-1.6188,-1.614,-1.614,-1.614,-1.6141,0,-1.5214,-1.5274,-1.5325,-1.5384,-1.5472,-1.5528,-1.554,-1.564,-1.5678,-1.5755,-1.5807,-1.5864,-1.598,-1.6041,-1.6086,-1.6118,-1.6154,-1.6138,-1.6129,-1.6169,-1.6171,-1.6173,-1.6185,-1.6189,-1.6142,-1.6142,-1.6142,0,-1.5209,-1.5281,-1.5314,-1.5423,-1.5482,-1.5543,-1.5576,-1.5638,-1.5685,-1.5751,-1.5827,-1.588,-1.5967,-1.604,-1.6075,-1.6084,-1.6169,-1.6156,-1.6153,-1.6159,-1.6202,-1.6204,-1.6205,-1.6184,-1.6184,-1.6184,0,0,-1.5223,-1.5282,-1.5384,-1.5435,-1.5469,-1.5552,-1.5592,-1.5636,-1.5711,-1.5741,-1.581,-1.5883,-1.5952,-1.5995,-1.6064,-1.6132,-1.6157,-1.6157,-1.6155,-1.6154,-1.6158,-1.62,-1.6202,-1.6183,-1.6183,-1.6183,0,0,-1.5231,-1.5349,-1.5376,-1.5446,-1.5515,-1.5619,-1.5648,-1.5684,-1.5753,-1.5755,-1.5833,-1.5856,-1.5925,-1.5976,-1.5957,-1.607,-1.6082,-1.6088,-1.6034,-1.6033,-1.6031,-1.6017,-1.6002,0,0,0,0,0,-1.53,-1.5335,-1.5358,-1.5381,-1.5519,-1.5605,-1.5624,-1.5688,-1.5696,-1.5717,-1.5781,-1.5816,-1.5982,-1.5968,-1.599,-1.601,-1.6174,-1.6175,-1.6177,-1.6125,-1.6122,-1.612,0,0,0,0,0,0,-1.5309,-1.5337,-1.5357,-1.5461,-1.5493,-1.5605,-1.5631,-1.565,-1.5695,-1.57,-1.5803,-1.582,-1.5877,-1.5961,-1.598,-1.5997,-1.5996,-1.6174,-1.6176,-1.6177,-1.6124,-1.6122,-1.612,0,0,0,0,0,-1.5317,-1.534,-1.5544,-1.5461,-1.5489,-1.5583,-1.563,-1.5646,-1.5682,-1.5781,-1.5798,-1.5727,-1.5876,-1.5897,-1.5973,-1.5987,-1.5983,-1.599,-1.6175,-1.6176,-1.6177,-1.6123,0,0,0,0,0,0,-1.5323,-1.5356,-1.5552,-1.5562,-1.5452,-1.5578,-1.56,-1.5643,-1.5761,-1.5779,-1.5708,-1.5711,-1.5875,-1.5892,-1.5907,-1.598,-1.5972,-1.598,-1.5984,-1.6176,-1.6177,-1.6178,0,0,0,0,0,0,-1.5344,-1.5364,-1.5557,-1.5542,-1.5552,-1.5573,-1.5593,-1.5666,-1.5762,-1.5682,-1.5688,-1.5708,-1.5852,-1.5888,-1.5901,-1.6013,-1.5964,-1.5971,-1.5976,-1.5979,-1.6177,-1.6177,0,0,0,0,0,0,-1.5354,-1.5372,-1.554,-1.5547,-1.5556,-1.5683,-1.564,-1.5778,-1.5747,-1.5676,-1.5746,-1.5746,-1.5848,-1.5862,-1.5896,-1.6003,-1.6011,-1.5965,-1.5969,-1.5973,-1.5975,0,0,0,0,0,0,0,-1.5362,-1.5228,-1.5487,-1.5551,-1.5559,-1.5663,-1.5666,-1.5669,-1.5747,-1.5747,-1.5746,-1.5746,-1.5926,-1.5933,-1.5941,-1.5994,0,0,-1.5964,-1.5967,0,0,0,0,0,0,0,0,-1.5222,-1.5227,-1.5487,-1.5489,-1.5492,-1.5663,-1.5666,-1.5668,-1.5747,-1.5747,-1.5746,-1.5746,-1.5928,-1.5934,-1.594,0,0,0,0,0,0,0,0,0,0,0,0,0,0,0,-1.5487,-1.5489,0,-1.5664,-1.5666,-1.5668,-1.5747,-1.5747,-1.5747,-1.5746,-1.5929,-1.5934,-1.5939,0,0,0,0,0,0,0,0,0,0,0,0,0,0,0,0,0,0,0,0,0,0,0,0,0,0,0,0,0,0,0,0,0,0,0,0,0,0,0,0,0,0,0,0,0,0,0,0,0,0,0,0,0,0,0,0,0,0,0,0,0,0,0,0,0,0,0,0,0]}]]]